Location: Steznica
(49.3330°N, 22.3330°E)
Time: 10:53:52
(UTC+02:00)

ISS - Visible Passes

Search period start: 18 June 2024 00:00
Search period end: 28 June 2024 00:00
Orbit: 411 x 425 km, 51.6° (Epoch: 17 June)

Date Brightness Start Highest point End Pass type
(mag) Time Alt. Az. Time Alt. Az. Time Alt. Az.
24 Jun -1.1 03:04:07 10° SE 03:04:14 10° SE 03:04:20 10° SE visible
26 Jun -2.1 03:02:14 13° S 03:04:20 22° SE 03:07:01 10° E visible
27 Jun -1.7 02:15:44 14° SSE 02:16:21 15° SE 02:18:21 10° E visible
